Bar Harbor, ME

9:21 PM EST on December 15, 2019 (GMT -0500)
Hancock County-Bar Harbor

Weather History for KBHB - October, 2019

Change the Weather History Date:

Tuesday, October 15, 2019

  Actual Average Record
Temperature  
Mean Temperature 47 °F -  
Max Temperature 57 °F 57 °F 73 °F (1963)
Min Temperature 37 °F 42 °F 28 °F (2002)
Degree Days  
Heating Degree Days 18    
Moisture  
Dew Point 42 °F    
Average Humidity 75    
Maximum Humidity 100    
Minimum Humidity 36    
Precipitation  
Precipitation 0.00 in - - ()
Sea Level Pressure  
Sea Level Pressure 30.03 in    
Wind  
Wind Speed 3 mph (NW)    
Max Wind Speed 10 mph    
Max Gust Speed -    
Visibility 9 miles    
Events      
Averages and records for this station are not official NWS values.
T = Trace of Precipitation, MM = Missing Value Source: NWS Daily Summary

Daily Weather History Graph

Daily Weather History Graph

Search for Another Location

Airport or City:

Astronomy

Oct. 15, 2019 Rise Set
Actual Time 6:48 AM EDT 5:49 PM EDT
Civil Twilight 6:18 AM EDT 6:18 PM EDT
Nautical Twilight 5:45 AM EDT 6:52 PM EDT
Astronomical Twilight 5:11 AM EDT 7:26 PM EDT
Moon 7:04 PM EDT (10/15) 8:17 AM EDT (10/15)
Length of Visible Light 11h 59m
Length of Day
11h 01m
Full, 97% of the Moon is Illuminated
Oct 15
Full
Oct 21
Last Quarter
Oct 27
New
Nov 4
First Quarter
Nov 12
Full

Hourly Weather History & Observations

Time (EDT) Temp. Windchill Dew Point Humidity Pressure Visibility Wind Dir Wind Speed Gust Speed Precip Events Conditions
12:21 AM 53.6 °F - 53.6 °F 100% 29.96 in 4.0 mi NNW 3.5 mph - N/A   Overcast
12:35 AM 53.6 °F - 53.6 °F 100% 29.96 in 3.0 mi Calm Calm - N/A   Overcast
12:56 AM 54.0 °F - 53.1 °F 97% 29.96 in 10.0 mi Calm Calm - N/A   Overcast
1:06 AM 53.6 °F - 51.8 °F 94% 29.96 in 2.5 mi Calm Calm - N/A   Mostly Cloudy
1:25 AM 51.8 °F - 51.8 °F 100% 29.97 in 9.0 mi Calm Calm - N/A   Clear
1:46 AM 51.8 °F - 51.8 °F 100% 29.97 in 10.0 mi WNW 4.6 mph - N/A   Mostly Cloudy
1:56 AM 53.1 °F - 53.1 °F 100% 29.97 in 10.0 mi NW 3.5 mph - N/A   Overcast
2:38 AM 51.8 °F - 50.0 °F 94% 29.97 in 10.0 mi NNW 4.6 mph - 0.00 in   Overcast
2:56 AM 52.0 °F - 48.9 °F 89% 29.97 in 10.0 mi NNW 4.6 mph - 0.00 in   Overcast
3:14 AM 51.8 °F - 48.2 °F 88% 29.97 in 10.0 mi NNW 3.5 mph - N/A   Overcast
3:56 AM 51.1 °F - 46.9 °F 86% 29.98 in 10.0 mi Variable 5.8 mph - N/A   Overcast
4:56 AM 50.0 °F - 46.0 °F 86% 30.00 in 10.0 mi NNW 4.6 mph - N/A   Overcast
5:56 AM 50.0 °F - 45.0 °F 83% 30.02 in 10.0 mi WNW 3.5 mph - N/A   Overcast
6:56 AM 48.9 °F - 45.0 °F 86% 30.03 in 10.0 mi NNW 3.5 mph - N/A   Overcast
7:56 AM 48.9 °F - 45.0 °F 86% 30.06 in 10.0 mi Calm Calm - N/A   Partly Cloudy
8:56 AM 52.0 °F - 43.0 °F 71% 30.06 in 10.0 mi Variable 6.9 mph - N/A   Clear
9:56 AM 54.0 °F - 39.0 °F 57% 30.06 in 10.0 mi NNW 8.1 mph - N/A   Clear
10:56 AM 55.9 °F - 36.0 °F 47% 30.06 in 10.0 mi WNW 9.2 mph - N/A   Mostly Cloudy
11:56 AM 57.0 °F - 36.0 °F 45% 30.06 in 10.0 mi West 9.2 mph - N/A   Scattered Clouds
12:56 PM 57.0 °F - 35.1 °F 44% 30.05 in 10.0 mi WSW 10.4 mph - N/A   Scattered Clouds
1:56 PM 57.9 °F - 33.1 °F 39% 30.04 in 10.0 mi West 9.2 mph - N/A   Clear
2:56 PM 57.9 °F - 33.1 °F 39% 30.04 in 10.0 mi WNW 8.1 mph - N/A   Clear
3:56 PM 57.9 °F - 30.9 °F 36% 30.03 in 10.0 mi West 8.1 mph - N/A   Clear
4:56 PM 55.9 °F - 32.0 °F 40% 30.03 in 10.0 mi Variable 3.5 mph - N/A   Clear
5:56 PM 52.0 °F - 33.1 °F 49% 30.04 in 10.0 mi WNW 4.6 mph - N/A   Clear
6:56 PM 50.0 °F - 34.0 °F 54% 30.06 in 10.0 mi West 3.5 mph - N/A   Clear
7:56 PM 43.0 °F - 36.0 °F 76% 30.08 in 10.0 mi Calm Calm - N/A   Clear
8:56 PM 42.1 °F - 37.0 °F 82% 30.09 in 10.0 mi Calm Calm - N/A   Clear
9:56 PM 39.0 °F 36.8 °F 36.0 °F 89% 30.10 in 10.0 mi North 3.5 mph - N/A   Clear
10:56 PM 37.9 °F - 36.0 °F 93% 30.11 in 10.0 mi Calm Calm - N/A   Clear
11:56 PM 37.9 °F - 35.1 °F 89% 30.12 in 10.0 mi Calm Calm - N/A   Clear